{"data":{"norad_id":44341,"intl_designator":"2019-036C","name":"OTB","alt_names":[],"object_type":"PAYLOAD","status":"ACTIVE","operator":null,"country":"US","launch_date":"2019-06-25","launch_site_code":"AFETR","launch_vehicle":null,"mission":null,"orbit_class":"UNKNOWN","rcs_meters":null,"size_class":null,"mass_kg":null,"dimensions":null,"purposes":[],"wikipedia_slug":null,"has_3d_model":false,"image_url":null,"decayed_at":null,"tle_current":{"epoch":"2026-05-25T04:15:29.888928Z","epoch_age_seconds":69840,"freshness":"FRESH","line1":"1 44341U 19036C   26145.17742927  .00001145  00000+0  20147-3 0  9999","line2":"2 44341  23.9954 126.0808 0011236 111.6335 248.5355 14.57161389368013","mean_motion":14.57161389,"eccentricity":0.0011236,"inclination_deg":23.9954,"raan_deg":126.0808,"arg_perigee_deg":111.6335,"mean_anomaly_deg":248.5355,"bstar":0.00020147,"rev_number":36801,"period_min":98.822272595915,"perigee_km":694.3988413149,"apogee_km":710.31012177223,"semimajor_km":7080.4914815436,"source":"CELESTRAK","updated_at":"2026-05-25T13:37:55.969116Z"}}}